Location: Clarkson Observatory
(44.6781°N, 74.9517°W)
Time: 11:04:48
(UTC-05:00)

N. Korean satellite - Visible Passes

Search period start: 23 January 2018 00:00
Search period end: 02 February 2018 00:00
Orbit: 458 x 515 km, 97.2° (Epoch: 23 January)

Date Brightness Start Highest point End Pass type
(mag) Time Alt. Az. Time Alt. Az. Time Alt. Az.
23 Jan 10.2 05:38:59 10° ENE 05:39:58 11° E 05:40:58 10° ESE visible
23 Jan 6.4 17:47:54 10° SSE 17:51:28 81° ENE 17:55:00 10° N visible
24 Jan 6.5 06:46:40 10° NNE 06:50:07 84° E 06:53:36 10° S visible
24 Jan 7.0 17:24:31 10° SE 17:27:51 39° ENE 17:31:09 10° N visible
24 Jan 10.0 18:59:41 10° WSW 19:01:33 14° W 19:03:23 10° WNW visible
25 Jan 8.1 06:23:08 10° NNE 06:26:25 39° E 06:29:42 10° S visible
25 Jan 9.0 18:34:43 10° SSW 18:37:42 25° W 18:40:41 10° NW visible
26 Jan 9.4 05:59:57 10° NE 06:02:37 20° E 06:05:17 10° SE visible
26 Jan 7.5 18:10:30 10° S 18:13:56 49° W 18:17:22 10° NNW visible
27 Jan 10.2 05:37:51 10° ENE 05:38:45 11° E 05:39:39 10° ESE visible
27 Jan 6.4 17:46:44 10° SSE 17:50:15 78° ENE 17:53:45 10° N visible
28 Jan 6.6 06:45:25 10° NNE 06:48:53 82° ESE 06:52:22 10° S visible
28 Jan 10.0 18:58:27 10° WSW 19:00:18 14° W 19:02:09 10° WNW visible
29 Jan 8.2 06:21:53 10° NNE 06:25:10 38° E 06:28:28 10° SSE visible
29 Jan 9.0 18:33:29 10° SSW 18:36:27 25° W 18:39:26 10° NW visible
30 Jan 9.5 05:58:43 10° NE 06:01:22 20° E 06:04:01 10° SE visible
30 Jan 7.5 18:09:16 10° S 18:12:41 51° W 18:16:06 10° NNW visible
31 Jan 10.3 05:36:40 10° ENE 05:37:29 11° E 05:38:19 10° ESE visible
31 Jan 6.4 17:45:29 10° SSE 17:48:59 76° ENE 17:52:27 10° N visible
01 Feb 6.7 06:44:07 10° NNE 06:47:36 80° E 06:51:09 10° S visible
01 Feb 10.0 18:57:08 10° SW 18:59:01 14° W 19:00:54 10° WNW visible
